Regional Weather Roundup
Issued by NWS

Home | Current Version | Previous Version | Graphics & Text | Print | Product List | Glossary On
Versions: 1 2 3 4 5 6 7 8 9 10 11 12 13 14 15 16 17 18 19 20 21 22 23 24 25 26 27 28 29 30 31 32 33 34 35 36 37 38 39 40 41 42 43 44 45 46 47 48 49 50
000
ASUS45 KCYS 251010
RWRWY

WYOMING REGIONAL WEATHER ROUNDUP
NATIONAL WEATHER SERVICE CHEYENNE WY
400 AM MDT FRI JUL 25 2014

NOTE:  "FAIR" INDICATES FEW OR NO CLOUDS BELOW 12,000 FEET
WITH NO SIGNIFICANT WEATHER AND/OR OBSTRUCTIONS TO VISIBILITY.

WYZ001-251100-
YELLOWSTONE NATIONAL PARK

CITY           SKY/WX    TMP DP  RH WIND       PRES   REMARKS
LK YELLOWSTONE   N/A     32  23  69 CALM      30.27R
W YELLOWSTONE  NOT AVBL

$$
WYZ002>013-054>058-071-098>099-251100-
NORTHERN WYOMING

CITY           SKY/WX    TMP DP  RH WIND       PRES   REMARKS
JACKSON        CLEAR     37  28  70 CALM      30.18S
CODY           NOT AVBL
GREYBULL       CLEAR     62  42  47 VRB3      29.94S
WORLAND        CLEAR     57  31  37 CALM      29.97R
SHERIDAN       CLEAR     54  48  80 CALM      30.01S
BUFFALO        CLEAR     54  46  74 SW5       30.07S
GILLETTE       CLEAR     50  45  83 NW3       30.02S
HULETT         FAIR      55  45  67 MISG      30.03
NEWCASTLE      FAIR      63  43  48 NW10      29.95

$$
WYZ014>020-022>026-101>103-251100-
CENTRAL WYOMING

CITY           SKY/WX    TMP DP  RH WIND       PRES   REMARKS
BIG PINEY      CLEAR     46  28  49 NE9       30.22S
PINEDALE       SUNNY     43  34  70 NW7       30.23S
DUBOIS         FAIR      45  18  33 NW22G28   30.16F
LANDER         CLEAR     63  22  20 SW9       30.06S
RIVERTON       CLEAR     62  23  22 W8        30.07R
CASPER         CLEAR     55  47  74 N7        30.09S
DOUGLAS        CLEAR     59  51  75 NW7       30.07R

$$
WYZ021-027>030-104>119-251100-
SOUTHERN WYOMING

CITY           SKY/WX    TMP DP  RH WIND       PRES   REMARKS
EVANSTON       CLEAR     58  36  43 N7        30.22S
KEMMERER       SUNNY     52  32  46 NW6       30.23S
FORT BRIDGER   FAIR      59  32  36 W7        30.23F
ROCK SPRINGS   CLEAR     67  27  22 CALM      30.19S
DIXON          FAIR      68  44  42 E7        30.22S
RAWLINS        CLEAR     64  44  48 CALM      30.19S
SARATOGA       FAIR      61  45  55 SE10      30.22S
LARAMIE        CLEAR     58  46  64 E7        30.21F
CHEYENNE       CLEAR     70  46  42 W14       30.10S
TORRINGTON     CLEAR     68  45  43 NW7       29.95R
PINE BLUFFS    FAIR      59  52  77 E3        30.04S

$$



USA.gov is the U.S. government's official web portal to all federal, state and local government web resources and services.